Regional Weather Roundup
Issued by NWS Cleveland, OH

Home | Current Version | Previous Version | Graphics & Text | Print | Product List | Glossary On
Versions: 1 2 3 4 5 6 7 8 9 10 11 12 13 14 15 16 17 18 19 20 21 22 23 24 25 26 27 28 29 30 31 32 33 34 35 36 37 38 39 40 41 42 43 44 45 46 47 48 49 50
000
ASUS41 KCLE 060200
RWRCLE
OHIO REGIONAL WEATHER ROUNDUP
NATIONAL WEATHER SERVICE WILMINGTON, OH
1000 PM EDT TUE MAY 05 2015

NOTE: "FAIR" INDICATES FEW OR NO CLOUDS BELOW 12,000 FEET WITH NO
SIGNIFICANT WEATHER AND/OR OBSTRUCTIONS TO VISIBILITY.

OHZ001>008-015>018-024>027-034-035-043-044-060300-
   NORTHWEST OHIO

CITY           SKY/WX    TMP DP  RH WIND       PRES   REMARKS
DEFIANCE       CLOUDY    54  49  83 E9        30.24S
FINDLAY        CLOUDY    55  51  86 NE16      30.23R
TOLEDO EXPRESS LGT RAIN  51  50  96 E7        30.26S FOG
TOLEDO EXEC    CLOUDY    52  49  89 E10       30.27S
LIMA           CLEAR     57  53  86 NE10      30.22R
$$

OHZ009>014-019>023-028>033-038-089-060300-
   NORTHEAST OHIO

CITY           SKY/WX    TMP DP  RH WIND       PRES   REMARKS
CLE-HOPKINS    CLOUDY    53  49  86 NE7       30.26S FOG
CLE-LAKEFRONT  CLOUDY    53  50  89 NE8       30.24S FOG
CUY CO. ARPT   CLOUDY    57  55  94 E6        30.25S FOG
LORAIN-ELYRIA  MOCLDY    52  50  93 NE7       30.25R FOG
ASHTABULA      LGT RAIN  53  51  93 CALM      30.27R FOG
AKRON-CANTON   PTCLDY    61  56  83 NE6       30.23S HAZE
WOOSTER        NOT AVBL
MANSFIELD      PTCLDY    58  57  97 NE3       30.23R FOG
YOUNGSTOWN     CLOUDY    61  59  93 NE6       30.24S FOG
$$

OHZ042-051>053-060>062-070>072-077>081-060300-
  SOUTHWEST OHIO

CITY           SKY/WX    TMP DP  RH WIND       PRES   REMARKS
CINC-COVINGTON CLEAR     66  55  67 S3        30.20R
CINC-LUNKEN    CLEAR     65  58  78 CALM      30.20R
HAMILTON       CLEAR     65  57  75 CALM      30.19S
DAYTON         NOT AVBL
WRIGHT-PAT AFB NOT AVBL
DAYTON GENERAL CLEAR     70  52  52 CALM      30.19R
WILMINGTON     CLEAR     69  52  54 CALM      30.21R
$$

OHZ036-037-039>041-045>050-054>059-063>069-073>076-082>088-060300-
  CENTRAL AND SOUTHEAST OHIO

CITY           SKY/WX    TMP DP  RH WIND       PRES   REMARKS
COLUMBUS       PTCLDY    70  56  61 CALM      30.19R
OSU AIRPORT    CLEAR     66  56  70 S3        30.19R
BOLTON FIELD   NOT AVBL
RICKENBACK AFB NOT AVBL
NEWARK         CLEAR     64  60  87 CALM      30.19R
MARION         PTCLDY    60  57  89 N10       30.22R FOG
LANCASTER      CLEAR     64  56  75 CALM      30.20R
ZANESVILLE     CLEAR     69  55  60 CALM      30.20R
NEW PHILLY     PTCLDY    64  61  90 CALM      30.22R
$$



USA.gov is the U.S. government's official web portal to all federal, state and local government web resources and services.